When you browse on this site, cookies collect data to enhance your experience and personalize the content and advertising you see.
Visit our Privacy Policy to learn more. By continuing to use the site, you agree to this use of cookies and data.
  • In Netherlands
  • List of Countries
  • For 7 days
  • Water Temperature
  • Weather Map
  • Weather Widgets
  • user-avatar
    Login

    Hourly Weather Sint-Niklaas

    Today, 4 April, Saturday

    Time Temperature Precipitation Wind Pressure Humidity
    00:00 +5°C° 0 mm 2 mps 764 mmHg 65%
    01:00 +4°C° 0 mm 2 mps 765 mmHg 65%
    02:00 +4°C° 0 mm 2 mps 765 mmHg 66%
    03:00 +4°C° 0 mm 2 mps 765 mmHg 66%
    04:00 +4°C° 0 mm 2 mps 765 mmHg 66%
    05:00 +4°C° 0 mm 2 mps 765 mmHg 67%
    06:00 +4°C° 0 mm 2 mps 766 mmHg 67%
    07:00 +6°C° 0 mm 2 mps 766 mmHg 62%
    08:00 +8°C° 0 mm 3 mps 766 mmHg 57%
    09:00 +10°C° 0 mm 3 mps 766 mmHg 53%
    10:00 +11°C° 0 mm 3 mps 766 mmHg 51%
    11:00 +13°C° 0 mm 3 mps 766 mmHg 50%
    12:00 +14°C° 0 mm 3 mps 765 mmHg 49%
    13:00 +14°C° 0 mm 3 mps 765 mmHg 49%
    14:00 +14°C° 0 mm 3 mps 765 mmHg 49%
    15:00 +15°C° 0 mm 2 mps 765 mmHg 49%
    16:00 +14°C° 0 mm 2 mps 765 mmHg 53%
    17:00 +13°C° 0 mm 2 mps 765 mmHg 57%
    18:00 +12°C° 0 mm 2 mps 765 mmHg 61%
    19:00 +10°C° 0 mm 2 mps 765 mmHg 62%
    20:00 +10°C° 0 mm 2 mps 765 mmHg 64%
    21:00 +9°C° 0 mm 3 mps 765 mmHg 65%
    22:00 +8°C° 0 mm 3 mps 765 mmHg 66%
    23:00 +8°C° 0 mm 3 mps 765 mmHg 67%

    Tomorrow, 5 April, Sunday

    Time Temperature Precipitation Wind Pressure Humidity
    00:00 +7°C° 0 mm 3 mps 765 mmHg 67%
    01:00 +7°C° 0 mm 3 mps 765 mmHg 69%
    02:00 +5°C° 0 mm 3 mps 765 mmHg 71%
    03:00 +5°C° 0 mm 3 mps 764 mmHg 73%
    04:00 +5°C° 0 mm 3 mps 764 mmHg 74%
    05:00 +5°C° 0 mm 4 mps 764 mmHg 75%
    06:00 +5°C° 0 mm 4 mps 764 mmHg 76%
    07:00 +7°C° 0 mm 4 mps 764 mmHg 70%
    08:00 +10°C° 0 mm 5 mps 763 mmHg 64%
    09:00 +13°C° 0 mm 5 mps 763 mmHg 57%
    10:00 +15°C° 0 mm 5 mps 763 mmHg 53%
    11:00 +17°C° 0 mm 5 mps 762 mmHg 49%
    12:00 +19°C° 0 mm 5 mps 762 mmHg 45%
    13:00 +20°C° 0 mm 5 mps 762 mmHg 46%
    14:00 +20°C° 0 mm 5 mps 761 mmHg 46%
    15:00 +20°C° 0 mm 5 mps 761 mmHg 46%
    16:00 +19°C° 0 mm 5 mps 761 mmHg 52%
    17:00 +18°C° 0 mm 4 mps 760 mmHg 57%
    18:00 +15°C° 0 mm 4 mps 760 mmHg 62%
    19:00 +14°C° 0 mm 4 mps 760 mmHg 65%
    20:00 +13°C° 0 mm 4 mps 761 mmHg 67%
    21:00 +12°C° 0 mm 4 mps 761 mmHg 69%
    22:00 +12°C° 0 mm 4 mps 761 mmHg 71%
    23:00 +11°C° 0 mm 4 mps 761 mmHg 74%

    Day after tomorrow, 6 April, Monday

    Time Temperature Precipitation Wind Pressure Humidity
    00:00 +11°C° 0 mm 4 mps 761 mmHg 76%
    01:00 +11°C° 0 mm 4 mps 761 mmHg 77%
    02:00 +10°C° 0 mm 4 mps 761 mmHg 77%
    03:00 +10°C° 0 mm 4 mps 761 mmHg 77%
    04:00 +8°C° 0 mm 4 mps 761 mmHg 77%
    05:00 +8°C° 0 mm 4 mps 761 mmHg 77%
    06:00 +8°C° 0 mm 4 mps 761 mmHg 77%
    07:00 +10°C° 0 mm 5 mps 761 mmHg 71%
    08:00 +13°C° 0 mm 5 mps 762 mmHg 64%
    09:00 +14°C° 0 mm 6 mps 762 mmHg 58%
    10:00 +15°C° 0 mm 6 mps 762 mmHg 55%
    11:00 +16°C° 0 mm 6 mps 763 mmHg 51%
    12:00 +17°C° 0 mm 6 mps 763 mmHg 48%
    13:00 +17°C° 0 mm 6 mps 763 mmHg 48%
    14:00 +19°C° 0 mm 5 mps 763 mmHg 48%
    15:00 +19°C° 0 mm 5 mps 764 mmHg 49%
    16:00 +17°C° 0 mm 4 mps 764 mmHg 56%
    17:00 +14°C° 0 mm 4 mps 765 mmHg 63%
    18:00 +13°C° 0 mm 3 mps 765 mmHg 70%
    19:00 +12°C° 0.1 mm 3 mps 766 mmHg 76%
    20:00 +12°C° 0.1 mm 2 mps 767 mmHg 82%
    21:00 +12°C° 0.1 mm 2 mps 767 mmHg 87%
    22:00 +12°C° 0 mm 2 mps 768 mmHg 88%
    23:00 +10°C° 0 mm 2 mps 768 mmHg 89%

    7 April, Tuesday

    Time Temperature Precipitation Wind Pressure Humidity
    00:00 +10°C° 0 mm 2 mps 769 mmHg 90%
    01:00 +10°C° 0 mm 1 mps 769 mmHg 91%
    02:00 +10°C° 0 mm 1 mps 769 mmHg 92%
    03:00 +8°C° 0 mm 0 mps 769 mmHg 92%
    04:00 +8°C° 0 mm 0 mps 770 mmHg 92%
    05:00 +9°C° 0 mm 0 mps 770 mmHg 91%
    06:00 +9°C° 0 mm 0 mps 770 mmHg 91%
    07:00 +11°C° 0 mm 1 mps 771 mmHg 84%
    08:00 +13°C° 0 mm 1 mps 771 mmHg 77%
    09:00 +14°C° 0 mm 1 mps 771 mmHg 70%
    10:00 +15°C° 0 mm 1 mps 771 mmHg 67%
    11:00 +16°C° 0 mm 1 mps 771 mmHg 64%
    12:00 +17°C° 0 mm 2 mps 771 mmHg 61%
    13:00 +17°C° 0 mm 2 mps 771 mmHg 60%
    14:00 +17°C° 0 mm 2 mps 771 mmHg 59%
    15:00 +18°C° 0 mm 2 mps 770 mmHg 58%
    16:00 +17°C° 0 mm 2 mps 770 mmHg 62%
    17:00 +16°C° 0 mm 2 mps 770 mmHg 66%
    18:00 +15°C° 0 mm 2 mps 770 mmHg 70%
    19:00 +15°C° 0 mm 2 mps 771 mmHg 73%
    20:00 +14°C° 0 mm 1 mps 771 mmHg 76%
    21:00 +13°C° 0 mm 1 mps 771 mmHg 80%
    22:00 +12°C° 0 mm 1 mps 771 mmHg 82%
    23:00 +12°C° 0 mm 1 mps 771 mmHg 84%

    8 April, Wednesday

    Time Temperature Precipitation Wind Pressure Humidity
    00:00 +12°C° 0 mm 1 mps 771 mmHg 86%
    01:00 +11°C° 0 mm 1 mps 771 mmHg 88%
    02:00 +11°C° 0 mm 1 mps 771 mmHg 89%
    03:00 +11°C° 0 mm 1 mps 771 mmHg 90%
    04:00 +11°C° 0 mm 1 mps 771 mmHg 90%
    05:00 +11°C° 0 mm 1 mps 771 mmHg 90%
    06:00 +11°C° 0 mm 1 mps 771 mmHg 90%
    07:00 +13°C° 0 mm 1 mps 771 mmHg 83%
    08:00 +15°C° 0 mm 1 mps 770 mmHg 75%
    09:00 +18°C° 0 mm 1 mps 770 mmHg 67%
    10:00 +18°C° 0 mm 2 mps 770 mmHg 63%
    11:00 +19°C° 0 mm 2 mps 770 mmHg 58%
    12:00 +20°C° 0 mm 2 mps 770 mmHg 54%
    13:00 +20°C° 0 mm 2 mps 770 mmHg 54%
    14:00 +20°C° 0 mm 3 mps 769 mmHg 54%
    15:00 +20°C° 0 mm 3 mps 769 mmHg 54%
    16:00 +18°C° 0 mm 4 mps 769 mmHg 60%
    17:00 +17°C° 0 mm 4 mps 769 mmHg 65%
    18:00 +14°C° 0 mm 4 mps 769 mmHg 71%
    19:00 +13°C° 0 mm 4 mps 770 mmHg 72%
    20:00 +12°C° 0 mm 3 mps 770 mmHg 74%
    21:00 +11°C° 0 mm 3 mps 770 mmHg 76%
    22:00 +11°C° 0 mm 3 mps 770 mmHg 79%
    23:00 +12°C° 0 mm 2 mps 770 mmHg 83%

    9 April, Thursday

    Time Temperature Precipitation Wind Pressure Humidity
    00:00 +10°C° 0 mm 2 mps 770 mmHg 86%
    01:00 +10°C° 0 mm 2 mps 770 mmHg 88%
    02:00 +10°C° 0 mm 2 mps 770 mmHg 91%
    03:00 +9°C° 0 mm 2 mps 770 mmHg 93%
    04:00 +9°C° 0 mm 2 mps 770 mmHg 93%
    05:00 +9°C° 0 mm 2 mps 770 mmHg 93%
    06:00 +9°C° 0 mm 2 mps 770 mmHg 93%
    07:00 +12°C° 0 mm 2 mps 770 mmHg 85%
    08:00 +14°C° 0 mm 2 mps 770 mmHg 78%
    09:00 +16°C° 0 mm 3 mps 770 mmHg 70%
    10:00 +17°C° 0 mm 2 mps 769 mmHg 64%
    11:00 +19°C° 0 mm 2 mps 769 mmHg 59%
    12:00 +20°C° 0 mm 2 mps 769 mmHg 53%
    13:00 +20°C° 0 mm 2 mps 769 mmHg 51%
    14:00 +21°C° 0 mm 2 mps 768 mmHg 50%
    15:00 +21°C° 0 mm 2 mps 768 mmHg 48%
    16:00 +20°C° 0 mm 3 mps 768 mmHg 53%
    17:00 +19°C° 0 mm 3 mps 768 mmHg 58%
    18:00 +18°C° 0 mm 3 mps 767 mmHg 63%
    19:00 +17°C° 0 mm 3 mps 768 mmHg 66%
    20:00 +16°C° 0 mm 3 mps 768 mmHg 69%
    21:00 +14°C° 0 mm 4 mps 768 mmHg 72%
    22:00 +14°C° 0 mm 4 mps 768 mmHg 74%
    23:00 +13°C° 0 mm 3 mps 768 mmHg 77%
    Show more